Regional Weather Roundup
Issued by NWS

Home | Current Version | Previous Version | Graphics & Text | Print | Product List | Glossary Off
Versions: 1 2 3 4 5 6 7 8 9 10 11 12 13 14 15 16 17 18 19 20 21 22 23 24 25 26 27 28 29 30 31 32 33 34 35 36 37 38 39 40 41 42 43 44 45 46 47 48 49 50

377
ASUS43 KDMX 191106
RWRIA

WEATHER ROUNDUP FOR IOWA
NATIONAL WEATHER SERVICE DES MOINES IA
600 AM CDT TUE SEP 19 2017

NOTE: "FAIR" INDICATES FEW OR NO CLOUDS BELOW 12,000 FEET WITH NO
SIGNIFICANT WEATHER AND/OR OBSTRUCTIONS TO VISIBILITY.

* - THESE STATIONS ARE NOT NWS STATIONS...THUS NOT UNDER NWS
QUALITY CONTROL.  THEY ALSO DO NOT REPORT WEATHER SUCH
AS PRECIPITATION OR FOG.

IAZ001>003-012>014-020>022-031>034-043>046-191200-
   NORTHWEST IOWA

CITY           SKY/WX    TMP DP  RH WIND       PRES   REMARKS
CARROLL *      CLOUDY    64  64 100 SE5       29.86F FOG
CHEROKEE *     CLOUDY    65  65 100 SE8       29.85S FOG
DENISON *      MOCLDY    64  64 100 SE7       29.86S FOG
LE MARS *      CLOUDY    66  66 100 SE8       29.82S FOG
ORANGE CITY *  FOG       66  66 100 SE5       29.83F VSB 1
SHELDON *      CLOUDY    64  64 100 SE9       29.82F FOG
SIOUX CITY     CLOUDY    66  66 100 SE8       29.81S FOG
SPENCER        CLOUDY    66  65  96 SE7       29.86S
STORM LAKE *   CLOUDY    64  64 100 SE10      29.86S FOG
$$

IAZ055>058-069>071-079>083-090>094-191200-
   SOUTHWEST IOWA

CITY           SKY/WX    TMP DP  RH WIND       PRES   REMARKS
ATLANTIC *     MOCLDY    64  64 100 CALM      29.86S
AUDUBON *      PTCLDY    63  61  94 CALM      29.87F FOG
CLARINDA *     CLOUDY    66  66 100 SE6       29.88S
COUNCIL BLFS * CLOUDY    66  66 100 SE10      29.83F FOG
CRESTON *      MOCLDY    63 N/A N/A SE7       29.90S HAZE
HARLAN  *      CLEAR     64  64 100 SE3       29.88F FOG
LAMONI         FOG       64  64 100 SE6       29.90S VSB 1/4
RED OAK *      MOCLDY    66  64  94 SE8       29.85S
SHENANDOAH *   CLOUDY    66  66 100 SE3       29.85S FOG
$$

IAZ047>049-059>061-072>074-084-191200-
   CENTRAL IOWA

CITY           SKY/WX    TMP DP  RH WIND       PRES   REMARKS
AMES           FOG       62  62 100 E5        29.90S VSB 1/4
ANKENY *       FOG       63  63 100 E5        29.91S VSB<1/4
BOONE *        CLOUDY    64  64 100 SE7       29.89F FOG
CHARITON *     FOG       64  63  94 SE9       29.91R VSB<1/4
DES MOINES     FOG       64  64 100 SE6       29.89S VSB 1/4
GRINNELL*      FOG       57  57  97 CALM      29.93S VSB 1/2
KNOXVILLE *    FOG       63  63 100 CALM      29.90S VSB 1/4
MARSHALLTOWN   CLOUDY    60  60 100 SE5       29.92S FOG
NEWTON *       FOG       59  59 100 CALM      29.92S VSB 1/4
PELLA *        FOG       63  63  98 CALM      29.93S VSB 1/4
PERRY *        FOG       64  64  99 E5        29.89S VSB 1/2
$$

IAZ004>006-015-016-023>025-035-036-191200-
   NORTH CENTRAL IOWA

CITY           SKY/WX    TMP DP  RH WIND       PRES   REMARKS
ALGONA *       CLOUDY    64  64 100 SE7       29.89S FOG
CLARION *      FOG       63  63 100 S5        29.91S VSB 1/4
ESTHERVILLE    CLOUDY    64  64 100 SE7       29.87S FOG
FORT DODGE *   CLOUDY    64  63  96 SE7       29.89S
MASON CITY     FOG       61  60  97 SE3       29.93S VSB 1/4
FOREST CITY *  FOG       63  63 100 SE5       29.91S VSB 1/2
WEBSTER CITY * FOG       63  63 100 SE7       29.88S VSB 1/2
IOWA FALLS *   FOG       62  62 100 SE3       29.93S VSB 1/4
$$

IAZ007>011-017>019-026>030-037>042-050>054-066-191200-
   NORTHEAST IOWA

CITY           SKY/WX    TMP DP  RH WIND       PRES   REMARKS
CEDAR RAPIDS   FOG       60  60 100 E3        29.93S VSB 1/4
CHARLES CITY * PTCLDY    55  55 100 E7        29.94S FOG
CLINTON *      CLOUDY    61  60  97 E3        29.96S
DECORAH *      CLEAR     57  55  94 CALM      29.95R
DUBUQUE        PTCLDY    56  55  97 SW3       29.97R
MONTICELLO *   CLOUDY    59  59 100 CALM      29.95S FOG
OELWEIN *      FOG       57  57 100 SE3       29.95R VSB<1/4
WATERLOO       PTCLDY    53  53 100 E3        29.93R FOG
$$

IAZ064-065-067-068-078-191200-
   EAST CENTRAL IOWA

CITY           SKY/WX    TMP DP  RH WIND       PRES   REMARKS
DAVENPORT      CLOUDY    61  60  97 E5        29.97R FOG
IOWA CITY      FOG       64  63  96 E3        29.95S VSB 1/4
MUSCATINE *    FOG       64  64 100 CALM      29.94S VSB<1/4
QUAD CITIES    CLOUDY    63  61  93 E6        29.95R FOG
$$

IAZ062-063-075>077-085>089-095>099-191200-
   SOUTHEAST IOWA

CITY           SKY/WX    TMP DP  RH WIND       PRES   REMARKS
BURLINGTON     FOG       65  65 100 CALM      29.93S VSB 1/4
FAIRFIELD *    FOG       64  64 100 S3        29.93R VSB<1/4
FORT MADISON * FOG       66  66 100 CALM      29.94F VSB 1/4
KEOKUK *       CLOUDY    66  66 100 CALM      29.93S FOG
OSKALOOSA *    FOG       60  60  99 CALM      29.93R VSB 1
OTTUMWA        CLOUDY    62  61  96 CALM      29.92S FOG
WASHINGTON *   FOG       59  59 100 CALM      29.94S VSB<1/4
$$

ABBREVIATIONS USED IN REMARKS
   TC - TEMPERATURES IN CELSIUS
  WCI - WIND CHILL INDEX
   HX - HEAT INDEX
  VSB - VISIBILITY
$$





USA.gov is the U.S. government's official web portal to all federal, state and local government web resources and services.